GW1261 Weather Reports


Display with metric or nautical units.
time (UTC)temp
F
wind
direction
speed
MPH
gust
MPH
rain 1hr
in
rain 24hr
in
rain mn
in
humidity
%
barometer
mb
20260904032222 78 171 0.0 0.0 0.00 0.00 0.00 99 976.2
20260904031717 79 174 0.0 0.0 0.00 0.00 0.00 99 976.5
20260904031213 78 174 0.0 0.0 0.00 0.00 0.00 99 976.4
20260904030709 78 174 0.0 0.0 0.00 0.00 0.00 99 976.4
20260904030204 78 174 0.0 0.0 0.00 0.00 0.00 99 976.4
20260904025700 78 173 0.0 0.0 0.00 0.00 0.00 99 976.4
20260904025154 77 173 0.0 0.0 0.00 0.00 0.00 99 976.5
20260904024650 77 171 0.0 0.0 0.00 0.00 0.00 99 976.6
20260904024146 78 172 0.0 0.0 0.00 0.00 0.00 99 976.6
20260904023642 78 173 0.0 0.0 0.00 0.00 0.00 99 976.8
20260904023137 78 169 0.0 0.0 0.00 0.00 0.00 99 976.8
20260904022631 78 174 0.0 0.0 0.00 0.00 0.00 99 976.7
20260904022128 78 169 0.0 0.0 0.00 0.00 0.00 99 976.7
20260904021623 78 173 0.0 0.0 0.00 0.00 0.00 99 976.7
20260904014058 78 174 0.0 0.0 0.00 0.00 0.00 99 976.5
20260904013554 78 174 0.0 0.0 0.00 0.00 0.00 99 976.5
20260904013050 77 174 0.0 0.0 0.00 0.00 0.00 99 976.4
20260904012550 77 173 0.0 0.0 0.00 0.00 0.00 99 976.6
20260904012044 77 174 0.0 0.0 0.00 0.00 0.00 99 976.4
20260904011543 77 174 0.0 0.0 0.00 0.00 0.00 99 976.4
20260904011039 77 174 0.0 0.0 0.00 0.00 0.00 99 976.4
20260904010535 77 174 0.0 0.0 0.00 0.00 0.00 99 976.2
20260904010031 77 174 0.0 0.0 0.00 0.00 0.00 99 976.2
20260904005526 77 174 0.0 0.0 0.00 0.00 0.00 99 976.0
20260904005021 77 173 0.0 0.0 0.00 0.00 0.00 99 976.1
20260904004516 77 173 0.0 0.0 0.00 0.00 0.00 99 975.9
20260904004011 76 174 0.0 0.0 0.00 0.00 0.00 99 975.8
20260904003507 76 174 0.0 0.0 0.00 0.00 0.00 99 975.8
20260904003002 76 174 0.0 0.0 0.00 0.00 0.00 99 975.7
20260904002458 76 174 0.0 0.0 0.00 0.00 0.00 99 975.6
20260904001956 76 175 0.0 0.0 0.00 0.00 0.00 99 975.5
20260904001453 76 175 0.0 0.0 0.00 0.00 0.00 99 975.6
20260904000946 76 175 0.0 0.0 0.00 0.00 0.00 99 975.3
20260904000447 76 175 0.0 0.0 0.00 0.00 0.00 99 975.3
20260903235942 76 175 0.0 0.0 0.00 0.00 0.00 99 975.2
20260903235437 76 175 0.0 0.0 0.00 0.00 0.00 99 975.1
20260903234932 76 175 0.0 0.0 0.00 0.00 0.00 99 975.1
20260903234428 76 175 0.0 0.0 0.00 0.00 0.00 99 975.0
20260903233924 76 175 0.0 0.0 0.00 0.00 0.00 99 974.9
20260903233419 76 175 0.0 0.0 0.00 0.00 0.00 99 975.0
20260903232914 76 175 0.0 0.0 0.00 0.00 0.00 99 975.0
20260903232409 76 175 0.0 0.0 0.00 0.00 0.00 99 974.8
20260903231909 76 175 0.0 0.0 0.00 0.00 0.00 99 974.9
20260903231403 76 175 0.0 0.0 0.00 0.00 0.00 99 974.7
20260903230859 76 175 0.0 0.0 0.00 0.00 0.00 99 974.5
20260903230354 76 175 0.0 0.0 0.00 0.00 0.00 99 974.7
20260903225850 76 175 0.0 0.0 0.00 0.00 0.00 99 974.9
20260903225346 76 174 0.0 0.0 0.00 0.00 0.00 99 974.7
20260903224842 76 174 0.0 0.0 0.00 0.00 0.00 99 974.7
20260903224338 76 174 0.0 0.0 0.00 0.00 0.00 99 974.7
20260903223834 76 174 0.0 0.0 0.00 0.00 0.00 99 974.6
20260903223332 76 174 0.0 0.0 0.00 0.00 0.00 99 974.8
20260903222827 76 174 0.0 0.0 0.00 0.00 0.00 99 974.6
20260903222327 76 174 0.0 0.0 0.00 0.00 0.00 99 974.4
20260903221821 76 174 0.0 0.0 0.00 0.00 0.00 99 974.6
20260903221320 76 174 0.0 0.0 0.00 0.00 0.00 99 974.5
20260903220818 76 174 0.0 0.0 0.00 0.00 0.00 99 974.5
20260903220312 76 174 0.0 0.0 0.00 0.00 0.00 99 974.2
20260903215805 76 174 0.0 0.0 0.00 0.00 0.00 99 974.2
20260903215305 76 174 0.0 0.0 0.00 0.00 0.00 99 974.5
20260903214800 76 174 0.0 0.0 0.00 0.00 0.00 99 974.2
20260903214255 76 174 0.0 0.0 0.00 0.00 0.00 99 974.2
20260903213750 76 174 0.0 0.0 0.00 0.00 0.00 99 974.1
20260903213245 76 174 0.0 0.0 0.00 0.00 0.00 99 974.1
20260903212736 76 174 0.0 0.0 0.00 0.00 0.00 99 973.9
20260903212233 76 174 0.0 0.0 0.00 0.00 0.00 99 974.1
20260903211731 76 174 0.0 0.0 0.00 0.00 0.00 99 973.9
20260903211228 76 174 0.0 0.0 0.00 0.00 0.00 99 973.9
20260903210723 76 174 0.0 0.0 0.00 0.00 0.00 99 974.1
20260903210219 76 174 0.0 0.0 0.00 0.00 0.00 99 974.1
20260903205713 76 171 0.0 0.0 0.00 0.00 0.00 99 974.1
20260903205212 76 171 0.0 0.0 0.00 0.00 0.00 99 974.1
20260903204708 76 171 0.0 0.0 0.00 0.00 0.00 99 974.0
20260903204204 76 171 0.0 0.0 0.00 0.00 0.00 99 973.6
20260903203659 76 175 0.0 0.0 0.00 0.00 0.00 99 974.0
20260903203154 76 175 0.0 0.0 0.00 0.00 0.00 99 973.8
20260903202648 76 175 0.0 0.0 0.00 0.00 0.00 99 974.1
20260903202144 76 175 0.0 0.0 0.00 0.00 0.00 99 974.0
20260903201638 76 175 0.0 0.0 0.00 0.00 0.00 99 973.9
20260903201138 76 174 0.0 0.0 0.00 0.00 0.00 99 973.8
20260903200633 76 153 0.0 0.0 0.00 0.00 0.00 99 973.9
20260903200128 76 174 0.0 0.0 0.00 0.00 0.00 99 973.8
20260903195624 76 175 0.0 0.0 0.00 0.00 0.00 99 974.1
20260903195120 76 173 0.0 0.0 0.00 0.00 0.00 99 974.0
20260903194614 76 178 0.0 0.0 0.00 0.00 0.00 99 973.8
20260903194114 76 178 0.0 0.0 0.00 0.00 0.00 99 973.9
20260903193610 76 178 0.0 0.0 0.00 0.00 0.00 99 974.1
20260903193106 76 178 0.0 0.0 0.00 0.00 0.00 99 974.0
20260903192602 76 178 0.0 0.0 0.00 0.00 0.00 99 974.0
20260903192057 76 178 0.0 0.0 0.00 0.00 0.00 99 973.9
20260903191554 76 178 0.0 0.0 0.00 0.00 0.00 99 973.9
20260903191048 76 178 0.0 0.0 0.00 0.00 0.00 99 974.0
20260903190542 77 178 0.0 0.0 0.00 0.00 0.00 99 974.0
20260903190042 77 178 0.0 0.0 0.00 0.00 0.00 99 974.0
20260903185537 77 178 0.0 0.0 0.00 0.00 0.00 99 974.1
20260903185032 76 178 0.0 0.0 0.00 0.00 0.00 99 974.1
20260903184529 77 178 0.0 0.0 0.00 0.00 0.00 99 974.1
20260903184023 77 178 0.0 0.0 0.00 0.00 0.00 99 974.1
20260903183522 77 178 0.0 0.0 0.00 0.00 0.00 99 974.0
20260903183017 77 178 0.0 0.0 0.00 0.00 0.00 99 974.3
20260903182516 77 178 0.0 0.0 0.00 0.00 0.00 99 974.3
20260903182013 77 178 0.0 0.0 0.00 0.00 0.00 99 974.3
20260903181506 77 178 0.0 0.0 0.00 0.00 0.00 99 974.3
20260903181006 76 178 0.0 0.0 0.00 0.00 0.00 99 974.4
20260903180501 76 178 0.0 0.0 0.00 0.00 0.00 99 974.6
20260903175959 76 178 0.0 0.0 0.00 0.00 0.00 99 974.5
20260903175454 76 175 0.0 0.0 0.00 0.00 0.00 99 974.2
20260903174953 76 176 0.0 0.0 0.00 0.00 0.00 99 974.1
20260903174449 76 176 0.0 0.0 0.00 0.00 0.00 99 974.3
20260903173948 76 177 0.0 0.0 0.00 0.00 0.00 99 974.3
20260903173443 76 178 0.0 0.0 0.00 0.00 0.00 99 974.5
20260903172939 76 178 0.0 0.0 0.00 0.00 0.00 99 974.5
20260903172434 76 178 0.0 0.0 0.00 0.00 0.00 99 974.7
20260903171930 76 178 0.0 0.0 0.00 0.00 0.00 99 974.8
20260903171425 76 178 0.0 0.0 0.00 0.00 0.00 99 974.7
20260903170924 76 178 0.0 0.0 0.00 0.00 0.00 99 974.6
20260903170419 76 178 0.0 0.0 0.00 0.00 0.00 99 974.9
20260903165918 76 178 0.0 0.0 0.00 0.28 0.28 99 974.8
20260903165413 76 178 0.0 0.0 0.00 0.28 0.28 99 975.0
20260903164907 76 178 0.0 0.0 0.00 0.28 0.28 99 974.8
20260903164402 76 178 0.0 0.0 0.00 0.28 0.28 99 974.8
20260903163902 76 178 0.0 0.0 0.00 0.28 0.28 99 974.7
20260903163358 76 178 0.0 0.0 0.00 0.28 0.28 99 975.0
20260903162854 76 178 0.0 0.0 0.00 0.28 0.28 99 975.1
20260903162350 76 178 0.0 0.0 0.00 0.28 0.28 99 975.0
20260903161846 76 178 0.0 0.0 0.00 0.28 0.28 99 975.0
20260903161341 76 178 0.0 0.0 0.00 0.28 0.28 99 975.1
20260903160837 76 178 0.0 0.0 0.00 0.28 0.28 99 975.1
20260903160335 76 178 0.0 0.0 0.00 0.28 0.28 99 975.0
20260903155834 76 178 0.0 0.0 0.00 0.28 0.28 99 975.0
20260903155330 76 178 0.0 0.0 0.00 0.28 0.28 99 974.9
20260903154825 76 178 0.0 0.0 0.00 0.28 0.28 99 974.8
20260903154321 76 178 0.0 0.0 0.00 0.28 0.28 99 974.9
20260903153816 76 178 0.0 0.0 0.00 0.28 0.28 99 974.9
20260903153312 76 178 0.0 0.0 0.00 0.28 0.28 99 974.8
20260903152808 76 177 0.0 0.0 0.00 0.28 0.28 99 975.0
20260903152306 76 177 0.0 0.0 0.00 0.28 0.28 99 974.8
20260903151758 76 180 0.0 0.0 0.00 0.28 0.28 99 974.7
20260903151254 76 177 0.0 0.0 0.00 0.28 0.28 99 974.7
20260903150754 76 177 0.0 0.0 0.00 0.28 0.28 99 974.9
20260903150248 76 177 0.0 0.0 0.00 0.28 0.28 99 974.9
20260903145744 76 177 0.0 0.0 0.00 0.28 0.28 99 974.8
20260903145239 76 177 0.0 0.0 0.00 0.28 0.28 99 974.7
20260903144737 76 177 0.0 0.0 0.00 0.28 0.28 99 975.1
20260903144233 76 177 0.0 0.0 0.00 0.28 0.28 99 975.0
20260903143729 76 177 0.0 0.0 0.00 0.28 0.28 99 974.8
20260903143225 76 177 0.0 0.0 0.00 0.28 0.28 99 975.0
20260903142720 77 177 0.0 0.0 0.00 0.28 0.28 99 974.7
20260903142216 77 176 0.0 0.0 0.00 0.28 0.28 99 974.8
20260903141712 77 176 0.0 0.0 0.00 0.28 0.28 99 974.1
20260903141207 77 176 0.0 0.0 0.00 0.28 0.28 99 974.3
20260903140703 77 176 0.0 0.0 0.00 0.28 0.28 99 974.3
20260903140157 77 176 0.0 0.0 0.00 0.28 0.28 99 974.1
20260903135653 77 176 0.0 0.0 0.00 0.28 0.28 99 974.1
20260903135148 77 176 0.0 0.0 0.00 0.28 0.28 99 974.1
20260903134647 77 176 0.0 0.0 0.00 0.28 0.28 99 974.0
20260903134143 77 176 0.0 0.0 0.00 0.28 0.28 99 974.0
20260903133640 77 176 0.0 0.0 0.00 0.28 0.28 99 973.6
20260903133136 77 176 0.0 0.0 0.00 0.28 0.28 99 973.4
20260903132630 77 176 0.0 0.0 0.00 0.28 0.28 99 973.4
20260903132125 77 176 0.0 0.0 0.00 0.28 0.28 99 973.6
20260903131620 77 176 0.0 0.0 0.00 0.28 0.28 99 973.5
20260903131119 77 176 0.0 0.0 0.00 0.28 0.28 99 973.3
20260903130616 77 176 0.0 0.0 0.00 0.28 0.28 99 973.3
20260903130109 77 176 0.0 0.0 0.00 0.28 0.28 99 973.3
20260903125607 77 176 0.0 0.0 0.00 0.28 0.28 99 973.1
20260903125103 77 176 0.0 0.0 0.00 0.28 0.28 99 973.0
20260903124603 77 176 0.0 0.0 0.00 0.28 0.28 99 973.3
20260903124102 77 176 0.0 0.0 0.00 0.28 0.28 99 973.1
20260903123602 77 176 0.0 0.0 0.00 0.28 0.28 99 973.1
20260903123100 77 176 0.0 0.0 0.00 0.28 0.28 99 973.1
20260903122555 77 175 0.0 0.0 0.00 0.28 0.28 99 973.1
20260903122055 77 175 0.0 0.0 0.00 0.28 0.28 99 972.9
20260903121549 77 175 0.0 0.0 0.00 0.28 0.28 99 972.9
20260903121045 77 175 0.0 0.0 0.00 0.28 0.28 99 972.9
20260903120544 77 175 0.0 0.0 0.00 0.28 0.28 99 972.8
20260903120039 77 175 0.0 0.0 0.00 0.28 0.28 99 972.8
20260903115537 77 175 0.0 0.0 0.00 0.28 0.28 99 972.7
20260903115032 77 175 0.0 0.0 0.00 0.28 0.28 99 973.0
20260903114527 77 175 0.0 0.0 0.00 0.28 0.28 99 972.8
20260903114023 77 175 0.0 0.0 0.00 0.28 0.28 99 972.6
20260903113518 77 175 0.0 0.0 0.00 0.28 0.28 99 972.8
20260903113015 77 175 0.0 0.0 0.00 0.00 0.00 99 972.6
20260903112510 77 175 0.0 0.0 0.00 0.00 0.00 99 972.6
20260903112009 77 175 0.0 0.0 0.00 0.00 0.00 99 972.4
20260903111503 77 172 0.0 0.0 0.00 0.00 0.00 99 972.6
20260903111000 78 169 0.0 0.0 0.00 0.00 0.00 99 972.5
20260903110455 78 169 0.0 0.0 0.00 0.00 0.00 99 972.2
20260903105949 78 169 0.0 0.0 0.00 0.00 0.00 99 972.1
20260903105445 78 169 0.0 0.0 0.00 0.00 0.00 99 972.2
20260903104944 78 169 0.0 0.0 0.00 0.00 0.00 99 972.0
20260903104444 77 169 0.0 0.0 0.00 0.00 0.00 99 972.1
20260903103941 78 170 0.0 0.0 0.00 0.00 0.00 99 972.1
20260903103436 77 169 0.0 0.0 0.00 0.00 0.00 99 971.9
20260903102932 77 167 0.0 0.0 0.00 0.00 0.00 99 972.1
20260903102427 77 164 0.0 0.0 0.00 0.00 0.00 99 971.8
20260903101926 78 164 0.0 0.0 0.00 0.00 0.00 99 971.8
20260903101421 78 169 0.0 0.0 0.00 0.00 0.00 99 971.8
20260903100916 78 169 0.0 0.0 0.00 0.00 0.00 99 972.0
20260903100411 78 169 0.0 0.0 0.00 0.00 0.00 99 972.1
20260903095908 78 169 0.0 0.0 0.00 0.00 0.00 99 971.8
20260903095403 77 169 0.0 0.0 0.00 0.00 0.00 99 972.0
20260903094857 77 169 0.0 0.0 0.00 0.00 0.00 99 971.9
20260903094352 77 169 0.0 0.0 0.00 0.00 0.00 99 972.1
20260903093848 77 169 0.0 0.0 0.00 0.00 0.00 99 972.2
20260903093342 77 169 0.0 0.0 0.00 0.00 0.00 99 971.9
20260903092837 76 168 0.0 0.0 0.00 0.00 0.00 99 971.9
20260903092332 76 166 0.0 0.0 0.00 0.00 0.00 99 972.0
20260903091831 76 166 0.0 0.0 0.00 0.00 0.00 99 972.1
20260903091325 76 152 0.0 0.0 0.00 0.00 0.00 99 972.1
20260903090821 77 164 0.0 0.0 0.00 0.00 0.00 99 972.2
20260903090320 76 165 0.0 0.0 0.00 0.00 0.00 99 972.1
20260903085818 77 165 0.0 0.0 0.00 0.00 0.00 99 972.3
20260903085313 76 165 0.0 0.0 0.00 0.00 0.00 99 972.2
20260903084812 77 163 0.0 0.0 0.00 0.00 0.00 99 972.3
20260903084311 77 165 0.0 0.0 0.00 0.00 0.00 99 972.5
20260903083807 77 162 0.0 0.0 0.00 0.00 0.00 99 972.8
20260903083302 77 163 0.0 0.0 0.00 0.00 0.00 99 972.6
20260903082801 78 166 0.0 0.0 0.00 0.00 0.00 99 972.7
20260903082256 79 168 0.0 0.0 0.00 0.00 0.00 98 972.5
20260903081751 80 165 0.0 0.0 0.00 0.00 0.00 96 972.7
20260903081247 81 165 0.0 0.0 0.00 0.00 0.00 96 972.5
20260903080743 83 162 0.0 0.0 0.00 0.00 0.00 92 972.4
20260903080240 83 156 0.0 0.0 0.00 0.00 0.00 90 972.0
20260903075740 84 156 0.0 0.0 0.00 0.00 0.00 87 972.3
20260903075235 84 156 0.0 0.0 0.00 0.00 0.00 86 972.3
20260903074734 85 156 0.0 0.0 0.00 0.00 0.00 83 972.3
20260903074231 85 156 0.0 0.0 0.00 0.00 0.00 82 972.3
20260903073724 85 156 0.0 0.0 0.00 0.00 0.00 83 972.5
20260903073220 85 156 0.0 0.0 0.00 0.00 0.00 83 972.5
20260903072715 86 156 0.0 0.0 0.00 0.00 0.00 81 972.6
20260903072212 86 156 0.0 0.0 0.00 0.00 0.00 82 972.6
20260903071707 87 156 0.0 0.0 0.00 0.00 0.00 81 972.8
20260903071203 87 156 0.0 0.0 0.00 0.00 0.00 81 972.6
20260903070657 86 156 0.0 0.0 0.00 0.00 0.00 81 972.7
20260903070153 86 359 0.0 0.0 0.00 0.00 0.00 80 972.9
20260903065653 86 18 0.0 1.0 0.00 0.00 0.00 80 973.1
20260903065147 86 357 0.0 0.0 0.00 0.00 0.00 81 973.1
20260903064646 86 358 0.0 0.0 0.00 0.00 0.00 81 973.5
20260903064142 86 357 0.0 0.0 0.00 0.00 0.00 81 973.4
20260903063638 86 27 0.0 0.0 0.00 0.00 0.00 81 973.4
20260903063132 86 9 0.0 0.0 0.00 0.00 0.00 82 973.5
20260903062628 86 19 0.0 0.0 0.00 0.00 0.00 81 973.4
20260903062123 87 69 0.0 1.0 0.00 0.00 0.00 79 973.7
20260903061618 87 167 0.0 0.0 0.00 0.00 0.00 79 973.7
20260903061118 88 167 0.0 0.0 0.00 0.00 0.00 79 973.6
20260903060613 89 164 0.0 0.0 0.00 0.00 0.00 78 973.6
20260903060108 89 170 0.0 0.0 0.00 0.00 0.00 80 974.1
20260903055606 89 170 0.0 0.0 0.00 0.00 0.00 81 974.1
20260903055104 89 170 0.0 0.0 0.00 0.00 0.00 81 974.2
20260903054559 89 167 0.0 0.0 0.00 0.00 0.00 81 974.5
20260903054055 89 167 0.0 0.0 0.00 0.00 0.00 77 974.4
20260903053550 88 167 0.0 0.0 0.00 0.00 0.00 82 974.4
20260903053047 88 166 0.0 0.0 0.00 0.00 0.00 76 974.6
20260903052542 87 166 0.0 0.0 0.00 0.00 0.00 80 974.5
20260903052038 86 144 0.0 0.0 0.00 0.00 0.00 78 974.8
20260903051537 87 137 0.0 1.0 0.00 0.00 0.00 78 974.8
20260903051033 86 77 0.0 0.0 0.00 0.00 0.00 79 975.0
20260903050532 86 163 0.0 0.0 0.00 0.00 0.00 77 975.2
20260903050028 87 158 0.0 2.0 0.00 0.00 0.00 79 975.0
20260903045527 86 148 0.0 0.0 0.00 0.00 0.00 80 974.7
20260903045024 86 153 0.0 0.0 0.00 0.00 0.00 82 975.0
20260903044519 85 142 0.0 2.0 0.00 0.00 0.00 81 975.2
20260903044015 85 67 1.0 3.0 0.00 0.00 0.00 79 975.1
20260903043510 85 160 0.0 0.0 0.00 0.00 0.00 82 975.2
20260903043009 85 51 0.0 0.0 0.00 0.00 0.00 82 975.3
20260903042504 85 132 1.0 2.0 0.00 0.00 0.00 81 975.4
20260903042000 85 186 0.0 3.0 0.00 0.00 0.00 82 975.4
20260903041457 85 244 0.0 0.0 0.00 0.00 0.00 82 975.5
20260903040952 85 224 0.0 1.0 0.00 0.00 0.00 81 975.7
20260903040450 85 205 1.0 1.0 0.00 0.00 0.00 82 975.7
20260903035947 85 241 0.0 1.0 0.00 0.00 0.00 81 975.7
20260903035442 85 234 0.0 0.0 0.00 0.00 0.00 81 975.8
20260903034938 85 235 0.0 0.0 0.00 0.00 0.00 80 975.7
20260903034432 84 235 0.0 0.0 0.00 0.00 0.00 81 975.7
20260903033927 85 235 0.0 0.0 0.00 0.00 0.00 83 975.6
20260903033423 84 234 0.0 0.0 0.00 0.00 0.00 85 975.7
20260903032918 84 233 0.0 0.0 0.00 0.00 0.00 82 975.9